Lid_Strength_Index
5 4 4 4 4 4 4 3 5 5 5 5 4 4 4 4 4 3 3 2 1 -2 -1 1 1 1 2 3 3 3 10 9 8 8 7 5 5 4 3 4 4 3 3 2 1
5 4 4 4 4 4 4 4 5 5 5 5 5 4 4 4 4 3 -0 -2 -2 -1 1 2 4 3 4 4 4 6 10 8 6 6 6 5 5 5 5 5 5 4 2 2 1
5 4 4 4 4 4 5 4 5 6 5 5 4 4 4 4 4 3 -1 -2 -2 -1 0 1 2 3 5 4 5 6 11 6 6 5 5 5 5 4 5 6 5 5 4 3 2
5 5 4 4 5 5 5 5 6 6 5 5 4 4 4 4 7 1 -1 -1 -2 -0 1 2 3 5 6 7 5 9 6 5 5 5 5 6 4 5 5 4 3 3 3 3 3
6 5 5 5 5 5 5 6 6 6 5 5 4 4 4 3 3 -0 -2 -1 -0 0 2 3 4 5 7 6 6 7 6 5 5 5 5 4 6 6 5 4 3 3 3 3 3
6 5 5 5 5 5 5 6 6 6 5 5 4 4 3 5 1 1 1 0 1 1 2 2 4 3 5 6 7 5 6 5 5 5 5 6 6 5 5 3 3 3 3 3 3
6 5 5 5 5 5 5 6 6 6 5 4 4 4 4 4 1 0 0 1 0 1 3 2 2 4 4 6 4 5 7 6 6 6 6 5 7 7 4 4 4 4 3 3 2
5 5 5 5 5 5 5 6 6 5 5 4 4 3 4 2 1 1 -0 1 0 0 1 1 1 3 5 4 5 7 7 13 6 6 6 6 13 6 4 4 5 4 4 3 3
5 5 5 5 4 5 5 6 6 5 4 4 3 3 4 2 2 1 0 2 1 1 1 1 2 5 5 7 8 8 11 10 8 5 6 7 10 6 4 4 5 5 4 3 3
5 6 5 5 4 5 5 7 5 5 5 4 4 5 3 4 2 1 0 1 3 3 4 4 5 6 7 9 13 11 11 9 9 7 6 7 8 6 5 5 5 5 4 4 3
6 6 5 5 5 5 6 5 6 5 5 4 3 4 3 2 2 2 1 2 2 4 8 5 11 13 8 6 7 7 8 9 7 6 7 7 7 6 5 5 5 5 4 4 4
6 6 5 5 5 6 6 5 5 4 5 3 3 3 3 2 4 3 1 4 5 8 6 7 11 6 6 6 7 7 9 8 7 6 7 6 7 6 5 5 5 5 4 4 4
6 7 5 6 5 6 6 5 3 3 5 4 3 4 3 3 4 4 2 4 6 7 9 12 8 6 6 7 8 8 8 8 8 6 6 6 7 6 5 5 4 4 4 3 3
6 7 6 6 7 5 6 4 4 3 7 6 5 4 4 4 5 2 2 4 5 8 7 9 5 7 7 7 7 12 6 7 7 8 13 7 12 7 6 5 5 4 4 3 3
6 7 6 7 4 7 5 3 3 4 13 5 5 2 2 4 4 4 2 4 7 7 7 11 7 7 7 7 6 8 6 6 7 8 8 7 11 8 6 6 5 4 4 3 3
7 8 6 5 4 4 4 3 4 8 13 7 5 5 5 4 5 4 4 3 4 6 6 7 5 6 6 5 5 5 6 7 6 9 16 9 10 12 10 8 5 4 3 3 3
7 8 7 3 5 3 3 4 8 11 6 7 7 5 6 6 6 6 6 7 8 10 12 7 7 5 5 7 5 6 8 12 13 12 12 7 9 9 7 6 4 4 4 3 2
8 8 6 3 2 3 3 5 10 8 8 5 6 6 7 6 6 6 7 8 6 7 10 10 10 6 5 6 8 7 7 10 13 13 10 7 10 9 5 4 4 3 3 3 3
8 5 3 3 2 2 4 8 9 7 6 6 6 7 7 6 7 7 7 8 7 6 11 9 9 5 5 5 5 8 9 6 8 8 9 8 7 6 5 5 4 4 3 3 3
3 4 4 3 2 4 6 9 7 5 5 5 8 7 8 8 8 7 8 6 6 5 5 8 10 6 6 5 5 6 5 8 8 12 12 10 9 10 6 6 4 4 4 3 2
4 6 4 3 3 6 7 6 6 4 4 6 7 8 7 8 7 8 8 6 5 6 5 6 8 7 5 6 7 6 7 7 7 8 10 11 10 5 6 5 5 4 3 3 3
4 7 4 3 7 6 6 5 9 5 4 5 5 6 7 7 7 8 8 7 4 5 7 5 7 9 7 5 5 5 6 6 9 9 8 9 9 4 4 4 4 4 3 3 2
6 6 4 4 7 6 5 5 4 5 5 5 6 5 5 7 8 7 7 5 4 5 6 5 7 9 8 6 5 7 6 6 6 7 9 10 9 4 4 4 3 3 3 3 2
3 8 6 6 5 5 6 6 6 5 5 5 5 5 6 6 6 7 7 6 4 4 3 5 6 7 9 8 6 7 7 6 6 9 8 8 7 6 5 5 4 4 3 3 3
3 6 6 8 7 5 4 5 6 6 5 5 6 5 6 7 7 6 6 5 4 6 5 5 7 6 6 6 6 7 7 7 7 7 8 7 7 6 5 5 4 3 3 3 3
4 4 5 6 6 6 8 6 6 6 5 6 6 5 5 6 6 6 5 5 5 4 5 4 7 6 7 6 6 7 6 6 6 6 7 6 7 5 4 4 4 4 4 4 3
1 1 3 8 6 6 6 5 6 5 5 4 4 5 5 5 4 3 3 4 4 5 5 5 6 7 9 7 7 9 7 7 6 6 6 8 7 5 5 5 4 4 4 4 3